User: anonymous   Login
Location: Hertford
(51.8000°N, 0.0667°W)
Time: 22:43:39
(UTC+00:00)
Language:

Cosmos 1655 Rocket - Orbit

View from above orbital plane
View from above orbital plane
View from above satellite
View from above satellite

Ground track
Ground track

The orbit data is extracted from the following two-line orbital elements,

1 15752U 85041B   20336.81864814  .00000070  00000-0  59603-4 0  9996
2 15752  82.9498  94.4289 0023587 213.4133 146.5535 13.73113737779020
Epoch (UTC): 01 December 2020 19:38:51
Eccentricity: 0.0023587
inclination: 82.9498°
perigee height: 971 km
apogee height: 1006 km
right ascension of ascending node: 94.4289°
argument of perigee: 213.4133°
revolutions per day: 13.73113737
mean anomaly at epoch: 146.5535°
orbit number at epoch: 77902

The dashed part of the orbit path shows where the satellite is in the earth's shadow,  

DLR